Tracking 19572 objects as of 23-Feb-2019
HD Live streaming from Space Station
objects crossing your sky now

COSMOS 1823 DEB

Track COSMOS 1823 DEB now!
10-day predictions


NORAD ID: 39820
Int'l Code: 1987-020EU
Perigee: 1,475.4 km
Apogee: 1,509.4 km
Inclination: 73.6 °
Period: 115.7 minutes
Semi major axis: 7863 km
RCS: 0.0229 m2 (small)
Launch date: February 20, 1987
Source: Commonwealth of Independent States (former USSR) (CIS)
Launch site: PLESETSK MISSILE AND SPACE COMPLEX (PKMTR)

Note: This is SATELLITE DEBRIS
aabbcc
Your satellite tracking list
Your tracking list is empty




NASA's NSSDC Master Catalog

Two Line Element Set (TLE):
1 39820U 87020EU  19053.17585948  .00000076  00000-0  65341-3 0  9999
2 39820  73.6356 342.2559 0021568 342.1517  84.6010 12.45053813676357
Source of the keplerian elements: AFSPC